Location: Unspecified
(0.0000°N, 0.0000°E)
Time: 21:12:43
(UTC+00:00)

NOSS 3-4 (A) - Pass Details

Date: 12 August 2024
Orbit: 801 x 1411 km, 63.4° (Epoch: 09 September)

Event Time Altitude Azimuth Distance (km) Brightness Sun altitude
Rises 19:23:44 0° 211° (SSW) 3,514 6.6 -19.0°
Reaches altitude 10° 19:26:22 10° 215° (SW) 2,506 5.9 -19.7°
Maximum altitude 19:31:55 56° 292° (WNW) 968 3.8 -21.0°
Drops below altitude 10° 19:37:09 10° 10° (N) 2,363 5.6 -22.3°
Sets 19:39:35 0° 15° (NNE) 3,296 6.3 -22.9°
